SCP
0 0 0 -0 0 -0 0 0 0 0 0 0 0 0 0 0 0 0 0 0 0 -0 -0 -0 -0 -0 -0 -0 -0 -0 -0 -0 -0 -0 -0 0 0 0 0 0 0 0 0 0 0 0 0 0 0
0 0 -0 0 0 0 -0 0 0 0 0 0 0 0 0 0 0 0 0 0 -0 -0 -0 -0 -0 -1 -1 -0 -0 -0 -0 -0 -0 -0 -0 -0 -0 0 0 -0 -0 0 0 0 0 0 0 0 0
-0 -0 -0 0 0 0 0 0 0 0 0 0 0 0 0 0 0 0 0 0 0 0 -0 -0 -0 -0 -0 -0 -0 -0 -0 -0 -0 -0 -0 -0 -0 -0 0 0 0 0 0 0 0 0 0 0 0
-0 -0 0 0 0 0 0 0 0 0 0 0 0 0 0 0 0 0 0 -0 -0 0 -0 -0 -0 -1 -1 -0 -0 -0 -0 -0 -0 -0 -0 -0 -0 -0 0 0 0 0 0 0 0 0 0 0 0
-0 0 0 0 0 0 0 0 0 0 0 0 0 0 0 0 0 0 0 0 0 0 0 -0 -1 -1 -1 -1 -0 -0 -0 0 0 -0 -0 -0 -0 -0 0 0 0 0 0 0 0 0 0 0 0
0 0 0 0 0 0 0 0 0 0 0 0 0 0 0 0 0 0 0 0 0 0 0 0 -0 -0 -0 -0 -0 -0 -0 -0 0 0 0 0 -0 0 0 0 0 0 0 0 0 0 0 0 0
0 0 0 0 0 0 0 0 0 0 0 0 0 0 0 0 0 0 0 0 0 0 0 0 0 0 -0 -0 -0 -0 -0 -0 -0 0 0 0 0 0 0 0 0 0 0 0 0 0 0 0 0
0 0 0 0 0 0 0 0 0 0 0 0 0 0 0 0 0 0 0 0 0 0 0 0 0 0 0 0 0 0 0 0 0 0 0 0 0 0 0 0 0 0 0 0 0 0 0 0 0
0 0 0 0 0 0 0 0 0 0 0 0 0 0 0 0 0 0 0 0 0 0 0 0 0 0 0 0 0 0 0 0 0 0 0 0 0 0 0 0 0 0 0 0 0 0 0 0 0
0 0 0 0 0 0 0 0 0 0 0 0 0 0 0 0 0 0 0 0 0 0 0 0 0 0 0 0 0 0 0 0 0 0 0 0 0 0 0 0 0 0 0 0 0 0 0 0 0
0 0 0 0 0 0 0 0 0 0 0 0 0 0 0 0 0 0 0 0 0 0 0 0 0 0 0 0 0 0 0 0 0 0 0 0 0 0 0 0 0 0 0 0 0 0 0 0 0
0 0 0 0 0 0 0 0 0 0 0 0 0 0 0 0 0 0 0 0 0 0 0 0 0 0 0 0 0 0 0 0 0 0 0 0 0 0 0 0 0 0 0 0 0 0 0 0 0
0 0 0 0 0 0 0 0 0 0 0 0 0 0 0 0 0 0 0 0 0 0 0 0 0 0 0 0 0 0 0 0 0 0 0 0 0 0 0 0 0 0 0 0 0 0 0 0 0
0 0 0 0 0 0 0 0 0 0 0 0 0 0 0 0 0 0 0 0 0 0 0 0 0 0 0 0 0 0 0 0 0 0 0 0 0 0 0 0 0 0 0 0 0 0 0 0 0
0 0 0 0 0 0 0 0 0 0 0 0 0 0 0 0 0 0 0 0 0 0 0 0 0 0 0 0 0 0 0 0 0 0 0 0 0 0 0 0 0 0 0 0 0 0 0 0 0
0 0 0 0 0 0 0 0 0 0 0 0 0 0 0 0 0 0 0 0 0 0 0 0 0 0 0 0 0 0 0 0 0 0 0 0 0 0 0 0 0 0 0 0 0 0 0 0 0
0 0 0 0 0 0 0 0 0 0 0 0 0 0 0 0 0 0 0 0 0 0 0 0 0 0 0 0 0 0 0 0 0 0 0 0 0 0 0 0 0 0 0 0 0 0 0 0 0
0 0 0 0 0 0 0 0 0 0 0 0 0 0 0 0 0 0 0 0 0 0 0 0 0 0 0 0 0 0 0 0 0 0 0 0 0 0 0 0 0 0 0 0 0 0 0 0 0
0 0 0 0 0 0 0 0 0 0 0 0 0 0 0 0 0 0 0 0 0 0 0 0 0 0 0 0 0 0 0 0 0 0 0 0 0 0 0 0 0 0 0 0 0 0 0 0 0
0 0 0 0 0 0 0 0 0 0 0 0 0 0 0 0 0 0 0 0 0 0 0 0 0 0 0 0 0 0 0 0 0 0 0 0 0 0 0 0 0 0 0 0 0 0 0 0 0
0 0 0 0 0 0 0 0 0 0 0 0 0 0 0 0 0 0 0 0 0 0 0 0 0 0 0 0 0 0 0 0 0 0 0 0 0 0 0 0 0 0 0 0 0 0 0 0 0
0 0 0 0 0 0 0 0 0 0 0 0 0 0 0 0 0 0 0 0 0 0 0 0 0 0 0 0 0 0 0 0 0 0 0 0 0 0 0 0 0 0 0 0 0 0 0 0 0
0 0 0 0 0 0 0 0 0 0 0 0 0 0 0 0 0 0 0 0 0 0 0 0 0 0 0 0 0 0 0 0 0 0 0 0 0 0 0 0 0 0 0 0 0 0 0 0 0
0 0 0 0 0 0 0 0 0 0 0 0 0 0 0 0 0 0 0 0 0 0 0 0 0 0 0 0 0 0 0 0 0 0 0 0 0 0 0 0 0 0 0 0 0 0 0 0 0
0 0 0 0 0 0 0 0 0 0 0 0 0 0 0 0 0 0 0 0 0 0 0 0 0 0 0 0 0 0 0 0 0 0 0 0 0 0 0 0 0 0 0 0 0 0 0 0 0
0 0 0 0 0 0 0 0 0 0 0 0 0 0 0 0 0 0 0 0 0 0 0 0 0 0 0 0 0 0 0 0 0 0 0 0 0 0 0 0 0 0 0 0 0 0 0 0 0
0 0 0 0 0 0 0 0 0 0 0 0 0 0 0 0 0 0 0 0 0 0 -0 -0 0 0 0 -0 -0 0 0 0 0 0 0 0 0 0 0 0 0 0 0 0 0 0 0 0 0
0 0 0 0 0 0 0 0 0 0 0 0 0 0 0 0 0 0 0 0 0 0 0 0 0 -0 -0 0 0 0 0 0 0 0 0 0 0 0 0 0 0 0 0 0 0 0 0 0 0
0 0 0 0 0 0 0 0 0 0 0 0 0 0 0 0 0 0 0 0 0 0 0 0 0 0 0 0 0 0 0 0 0 0 0 0 0 0 0 0 0 0 0 0 0 0 0 0 0
0 0 0 0 0 0 0 0 0 0 0 0 0 0 0 0 0 0 0 0 0 0 0 0 0 0 0 0 0 0 0 0 0 0 0 0 0 0 0 0 0 0 0 -0 -0 0 0 0 0
Wind_Speed_500mb
9 9 9 3 9 11 3 3 2 2 3 2 2 2 2 2 5 6 2 4 3 15 31 43 42 39 36 31 27 27 24 21 19 17 16 16 16 15 14 12 9 8 7 4 2 2 4 5 6
5 4 4 5 10 8 8 8 3 4 3 4 1 3 3 1 2 2 3 5 3 10 24 43 44 41 39 34 31 27 25 22 20 20 19 19 18 17 15 11 10 6 10 8 7 5 5 4 5
2 5 4 8 8 8 7 6 5 3 4 3 3 2 2 2 1 1 3 5 6 10 15 34 44 44 42 39 34 30 28 25 23 22 21 21 18 16 15 14 14 14 11 11 10 9 8 8 8
2 3 8 9 2 4 12 10 7 5 3 3 3 3 1 5 2 2 4 6 5 12 15 27 41 44 44 42 38 34 31 27 25 24 22 22 21 19 18 16 18 20 13 14 13 11 10 11 12
7 5 8 5 7 6 2 7 6 4 3 2 1 2 7 8 7 4 4 9 6 9 16 24 34 42 43 42 40 37 34 31 27 26 24 25 23 20 18 18 21 22 16 16 15 14 13 13 14
5 5 9 1 7 7 6 1 7 5 7 2 5 7 7 5 7 7 5 10 10 10 14 22 28 37 42 43 42 40 38 36 32 29 27 29 29 24 22 21 23 22 19 18 16 15 14 13 12
8 7 6 6 5 3 6 2 6 3 4 3 1 3 10 8 7 10 12 16 17 14 17 22 27 32 39 43 44 43 42 41 39 36 32 35 34 30 26 23 20 20 21 20 17 15 13 13 13
4 9 2 5 6 5 12 9 6 9 4 4 3 4 7 21 24 23 19 19 18 21 22 24 28 33 38 41 45 48 47 45 43 40 38 40 39 37 31 27 23 21 22 21 18 16 15 16 15
2 8 2 5 4 6 16 12 10 14 9 15 13 19 28 17 23 24 26 29 31 26 27 30 32 34 38 41 45 47 51 50 49 45 42 44 45 43 36 30 28 24 24 23 20 18 19 20 20
7 7 12 6 5 4 11 4 20 8 22 44 44 31 34 34 32 31 34 38 40 37 30 30 33 36 37 42 46 50 51 50 49 46 46 47 48 48 40 36 34 30 28 27 24 23 23 23 23
7 9 7 7 6 8 10 18 11 8 9 41 49 50 34 33 39 43 39 39 35 33 33 30 27 29 33 40 44 51 55 55 52 49 48 50 51 51 48 46 42 37 34 33 31 27 28 27 26
3 18 20 12 14 14 8 12 16 18 36 39 36 36 30 28 33 27 28 30 35 36 34 34 32 28 31 34 38 45 52 58 58 56 54 55 57 56 54 53 49 44 40 36 36 32 34 32 31
8 9 13 24 34 29 30 30 19 44 38 28 24 22 22 21 27 22 23 28 25 33 37 35 42 36 32 35 36 39 47 52 52 55 58 61 58 60 56 56 54 50 46 41 40 39 39 39 38
2 9 22 27 43 33 19 14 4 21 20 24 18 30 28 27 21 19 28 37 28 25 36 37 34 33 33 36 37 37 38 43 46 46 46 56 55 59 59 58 57 43 44 45 44 43 43 43 43
6 10 16 27 13 9 2 4 13 21 28 35 28 28 26 19 15 14 12 12 16 20 23 29 38 37 32 34 36 37 36 37 43 44 43 45 51 53 60 62 67 52 46 47 48 51 51 50 50
4 5 7 7 4 2 9 17 19 25 33 44 27 17 1 3 8 11 10 11 14 16 20 24 26 33 30 25 33 36 36 36 39 42 44 44 46 51 55 60 66 60 52 52 52 54 55 54 55
6 6 9 15 7 4 5 12 21 44 41 38 15 12 14 17 17 16 13 11 14 17 18 21 22 25 26 22 26 35 36 34 35 38 38 41 44 46 50 52 55 56 55 54 54 55 56 55 56
10 8 9 11 6 4 12 17 20 47 44 6 7 26 28 28 30 27 23 19 15 9 4 1 2 9 16 18 21 25 26 27 29 30 32 36 39 42 46 47 50 54 55 55 57 55 57 59 55
7 8 11 8 15 3 15 10 25 39 38 9 33 34 35 37 34 34 36 35 34 29 23 16 5 6 7 10 13 15 16 19 19 21 25 29 32 37 40 43 46 49 57 54 53 57 60 61 59
9 9 11 12 10 2 13 18 24 17 13 23 37 34 34 36 36 38 40 42 47 47 44 37 31 21 13 6 3 1 7 14 17 19 19 24 28 26 30 35 40 45 51 55 55 56 61 62 62
10 11 9 13 9 7 8 13 13 12 32 40 34 36 35 36 38 40 43 49 49 53 54 50 45 39 33 23 11 3 6 6 10 15 12 17 21 23 22 26 31 38 45 50 54 55 58 62 64
11 13 12 8 5 7 6 10 12 6 12 22 29 34 35 36 37 40 44 48 52 52 48 48 48 47 45 37 30 24 16 11 8 9 10 19 27 29 31 29 30 34 42 46 47 50 55 62 67
15 8 7 1 4 2 6 1 12 12 8 9 21 32 32 33 35 39 40 41 42 41 42 42 40 40 42 42 40 36 30 25 18 12 13 16 19 24 27 30 38 41 40 43 48 49 52 59 65
8 7 10 8 6 3 11 12 11 8 9 14 25 32 31 30 30 33 34 35 38 38 39 40 39 38 36 35 34 34 33 32 29 26 25 24 22 19 19 21 25 27 34 43 48 46 50 56 61
9 11 5 7 3 11 10 6 12 15 5 29 34 36 30 27 27 28 31 33 32 32 34 35 35 33 32 32 28 27 26 25 27 31 33 32 32 31 30 28 25 28 30 33 38 43 50 51 58
10 14 10 13 7 8 9 10 5 7 26 46 43 37 30 24 21 21 20 21 21 21 20 19 16 14 14 15 19 20 18 23 24 24 25 28 30 33 34 35 34 29 30 33 36 40 45 48 56
8 8 5 10 4 5 8 3 5 7 10 27 35 31 28 25 16 9 7 11 13 12 12 13 13 16 17 19 21 22 23 24 29 32 33 32 31 32 32 34 35 35 36 33 35 36 39 45 52
8 10 5 4 4 9 10 10 10 15 17 14 20 29 26 23 16 8 8 10 11 12 9 5 6 8 12 16 17 19 23 26 29 34 37 38 38 39 45 45 46 47 43 41 42 42 39 42 43
4 5 4 6 10 11 3 11 6 19 25 26 34 39 37 31 21 19 17 13 15 10 3 4 4 8 10 12 14 18 23 26 29 34 38 40 43 45 46 51 53 55 56 53 54 51 51 54 53
5 12 12 8 10 5 5 21 4 15 33 38 38 35 38 32 27 26 25 18 14 12 9 4 4 9 14 19 23 26 29 32 35 39 43 46 50 52 56 57 60 62 63 66 65 66 63 63 64
Wind_Direction_500mb
319 303 321 49 58 64 330 285 115 34 5 216 301 45 169 236 151 212 256 227 175 172 181 189 195 200 205 206 198 194 197 201 205 202 199 197 190 192 198 211 227 234 227 230 237 140 130 138 145
330 322 36 69 83 74 286 278 132 214 179 118 30 43 34 70 149 234 159 295 226 180 191 191 199 205 209 211 212 213 217 219 219 212 204 203 203 205 221 243 257 235 223 220 199 199 180 176 155
346 14 39 88 109 157 177 234 218 320 127 101 64 324 345 205 213 300 308 298 279 205 196 202 204 208 211 216 222 226 222 222 219 217 218 216 215 223 238 246 252 258 246 232 229 226 217 212 218
240 31 56 79 193 240 173 217 231 131 79 65 71 13 311 260 295 4 3 329 271 234 217 206 209 213 214 217 221 225 227 227 224 226 218 231 238 243 242 245 246 259 240 239 241 245 247 244 233
31 49 51 45 284 280 246 167 86 48 299 240 8 274 315 218 227 147 54 2 314 239 228 214 213 218 221 221 223 226 227 227 226 223 236 238 241 242 246 252 267 270 266 253 250 254 251 246 241
65 63 60 98 286 307 302 106 95 57 54 352 346 327 306 237 212 240 281 339 321 266 241 228 222 223 227 229 228 228 229 231 231 230 231 242 248 249 250 255 275 267 265 259 253 253 255 252 237
94 77 184 221 258 289 238 95 107 169 44 95 341 279 287 256 274 275 275 304 303 273 256 242 234 229 230 232 233 233 233 233 234 233 236 242 249 252 254 254 269 261 257 254 251 249 245 226 218
84 95 19 282 316 338 344 341 346 347 8 133 316 232 311 339 302 295 297 301 300 289 273 255 245 237 235 233 233 234 235 235 236 237 237 239 245 251 254 255 267 269 261 256 248 244 231 224 225
83 61 216 232 39 294 352 12 342 328 300 299 264 281 301 299 337 293 289 303 299 291 292 270 251 247 243 240 239 239 235 234 232 237 238 238 243 251 254 256 262 272 262 257 247 238 228 228 231
100 114 225 195 166 286 297 297 304 312 316 300 301 309 314 301 320 313 297 296 293 290 296 293 269 256 251 247 242 243 233 232 234 230 233 238 243 251 255 256 261 267 263 259 248 239 231 233 237
163 191 229 233 233 319 273 299 301 329 304 296 307 316 316 309 305 301 293 292 294 293 282 280 282 265 258 254 249 245 240 237 234 235 231 233 235 247 253 253 257 262 264 259 251 243 238 237 240
166 248 245 271 282 309 285 299 299 251 276 317 318 325 319 314 307 310 305 300 282 279 285 278 273 270 261 258 257 250 244 242 243 243 241 236 236 240 245 252 257 261 264 260 254 247 243 244 246
190 260 264 267 286 286 280 267 262 278 293 312 324 12 25 2 326 308 310 311 296 277 272 274 256 269 274 263 261 258 250 245 246 245 243 243 239 240 245 253 255 258 261 260 255 247 244 244 245
306 289 286 288 279 277 261 290 164 278 307 305 305 341 347 343 323 298 279 286 296 283 262 258 253 259 272 271 268 266 264 257 250 246 245 248 242 244 246 250 258 258 261 263 262 256 249 248 246
312 325 319 281 274 232 211 311 228 289 295 292 307 337 327 317 304 310 303 291 290 293 292 269 249 239 250 269 268 267 270 270 262 257 252 250 254 251 252 254 258 266 269 270 264 258 251 246 245
332 31 339 281 164 215 149 264 272 306 303 297 344 350 125 67 9 349 330 306 292 282 275 272 252 235 231 245 263 263 267 273 271 264 265 263 259 255 253 254 254 259 265 271 267 261 256 251 248
347 226 211 308 239 149 142 251 276 299 289 315 2 129 104 88 70 42 20 345 314 294 279 269 265 242 231 225 239 247 253 263 268 265 259 258 259 258 260 257 257 258 262 265 270 264 258 254 253
215 214 234 226 271 116 244 253 269 283 298 40 132 117 101 87 67 60 52 43 32 25 22 220 192 204 222 212 223 240 250 257 259 263 266 264 264 265 263 262 262 260 261 267 268 264 260 258 259
185 206 241 282 267 213 267 284 283 277 296 84 125 113 99 86 83 76 72 70 69 71 75 78 117 127 174 193 205 221 240 248 246 254 256 265 269 268 271 272 269 268 268 265 274 270 264 260 257
256 256 259 268 253 220 286 286 278 346 29 133 123 107 98 93 86 79 74 70 66 63 61 59 56 54 52 49 62 135 228 230 223 232 249 263 266 271 277 279 278 279 276 274 272 271 270 266 260
216 199 225 238 332 283 333 293 300 59 82 96 100 107 99 90 83 78 74 70 67 62 56 54 52 51 50 46 30 339 255 237 230 237 239 257 262 266 267 275 283 282 279 277 276 274 273 274 268
274 201 211 209 106 239 22 285 303 144 97 73 95 97 97 94 86 78 73 70 65 63 60 56 51 50 49 46 44 43 40 26 10 347 287 266 267 270 267 262 255 269 274 276 279 277 273 273 272
224 153 168 163 187 74 276 338 259 112 132 126 115 112 106 100 95 87 76 68 62 57 52 50 46 45 41 37 40 39 36 32 14 339 314 307 297 290 284 272 264 266 272 278 278 275 271 270 272
132 80 54 54 94 299 220 165 278 196 198 147 141 132 122 111 98 85 76 69 60 52 42 37 32 32 30 24 25 24 22 22 18 24 21 13 354 335 318 304 294 290 282 278 272 275 272 268 268
91 76 310 334 1 228 176 132 246 323 296 156 141 136 130 121 106 92 76 61 48 43 38 32 24 20 17 10 9 12 16 12 8 5 7 5 7 7 6 354 334 315 304 297 292 286 273 272 271
174 160 165 226 215 248 280 240 275 21 81 127 140 139 139 134 115 96 74 43 42 43 37 28 23 28 25 23 23 23 19 20 21 18 15 8 4 3 1 357 352 346 337 326 311 297 290 281 270
184 178 191 108 47 48 234 53 130 85 88 128 143 153 159 159 147 108 41 15 14 13 14 18 31 35 34 33 27 13 11 12 6 2 1 2 359 352 346 345 342 342 341 336 329 323 311 296 288
148 159 77 2 188 244 276 259 207 192 184 178 177 178 179 178 182 218 276 309 333 348 357 19 39 45 35 24 16 5 3 1 354 348 345 345 342 338 334 334 335 333 333 331 325 322 319 311 307
142 203 155 149 156 183 234 258 214 176 181 185 197 201 196 195 208 229 241 269 295 289 215 143 86 52 32 17 2 350 348 345 338 333 332 331 332 329 327 327 325 322 321 322 321 318 314 310 307
211 189 165 156 240 245 177 257 15 170 179 183 197 219 214 213 220 231 239 247 242 218 202 168 64 23 8 0 355 349 344 339 333 328 325 324 321 321 321 318 315 314 314 314 313 311 309 307 304
Wind_Speed_850mb
9 9 9 3 9 11 3 3 2 2 3 2 2 2 2 2 5 6 2 4 3 15 31 43 42 39 36 31 27 27 24 21 19 17 16 16 16 15 14 12 9 8 7 4 2 2 4 5 6
5 4 4 5 10 8 8 8 3 4 3 4 1 3 3 1 2 2 3 5 3 10 24 43 44 41 39 34 31 27 25 22 20 20 19 19 18 17 15 11 10 6 10 8 7 5 5 4 5
2 5 4 8 8 8 7 6 5 3 4 3 3 2 2 2 1 1 3 5 6 10 15 34 44 44 42 39 34 30 28 25 23 22 21 21 18 16 15 14 14 14 11 11 10 9 8 8 8
2 3 8 9 2 4 12 10 7 5 3 3 3 3 1 5 2 2 4 6 5 12 15 27 41 44 44 42 38 34 31 27 25 24 22 22 21 19 18 16 18 20 13 14 13 11 10 11 12
7 5 8 5 7 6 2 7 6 4 3 2 1 2 7 8 7 4 4 9 6 9 16 24 34 42 43 42 40 37 34 31 27 26 24 25 23 20 18 18 21 22 16 16 15 14 13 13 14
5 5 9 1 7 7 6 1 7 5 7 2 5 7 7 5 7 7 5 10 10 10 14 22 28 37 42 43 42 40 38 36 32 29 27 29 29 24 22 21 23 22 19 18 16 15 14 13 12
8 7 6 6 5 3 6 2 6 3 4 3 1 3 10 8 7 10 12 16 17 14 17 22 27 32 39 43 44 43 42 41 39 36 32 35 34 30 26 23 20 20 21 20 17 15 13 13 13
4 9 2 5 6 5 12 9 6 9 4 4 3 4 7 21 24 23 19 19 18 21 22 24 28 33 38 41 45 48 47 45 43 40 38 40 39 37 31 27 23 21 22 21 18 16 15 16 15
2 8 2 5 4 6 16 12 10 14 9 15 13 19 28 17 23 24 26 29 31 26 27 30 32 34 38 41 45 47 51 50 49 45 42 44 45 43 36 30 28 24 24 23 20 18 19 20 20
7 7 12 6 5 4 11 4 20 8 22 44 44 31 34 34 32 31 34 38 40 37 30 30 33 36 37 42 46 50 51 50 49 46 46 47 48 48 40 36 34 30 28 27 24 23 23 23 23
7 9 7 7 6 8 10 18 11 8 9 41 49 50 34 33 39 43 39 39 35 33 33 30 27 29 33 40 44 51 55 55 52 49 48 50 51 51 48 46 42 37 34 33 31 27 28 27 26
3 18 20 12 14 14 8 12 16 18 36 39 36 36 30 28 33 27 28 30 35 36 34 34 32 28 31 34 38 45 52 58 58 56 54 55 57 56 54 53 49 44 40 36 36 32 34 32 31
8 9 13 24 34 29 30 30 19 44 38 28 24 22 22 21 27 22 23 28 25 33 37 35 42 36 32 35 36 39 47 52 52 55 58 61 58 60 56 56 54 50 46 41 40 39 39 39 38
2 9 22 27 43 33 19 14 4 21 20 24 18 30 28 27 21 19 28 37 28 25 36 37 34 33 33 36 37 37 38 43 46 46 46 56 55 59 59 58 57 43 44 45 44 43 43 43 43
6 10 16 27 13 9 2 4 13 21 28 35 28 28 26 19 15 14 12 12 16 20 23 29 38 37 32 34 36 37 36 37 43 44 43 45 51 53 60 62 67 52 46 47 48 51 51 50 50
4 5 7 7 4 2 9 17 19 25 33 44 27 17 1 3 8 11 10 11 14 16 20 24 26 33 30 25 33 36 36 36 39 42 44 44 46 51 55 60 66 60 52 52 52 54 55 54 55
6 6 9 15 7 4 5 12 21 44 41 38 15 12 14 17 17 16 13 11 14 17 18 21 22 25 26 22 26 35 36 34 35 38 38 41 44 46 50 52 55 56 55 54 54 55 56 55 56
10 8 9 11 6 4 12 17 20 47 44 6 7 26 28 28 30 27 23 19 15 9 4 1 2 9 16 18 21 25 26 27 29 30 32 36 39 42 46 47 50 54 55 55 57 55 57 59 55
7 8 11 8 15 3 15 10 25 39 38 9 33 34 35 37 34 34 36 35 34 29 23 16 5 6 7 10 13 15 16 19 19 21 25 29 32 37 40 43 46 49 57 54 53 57 60 61 59
9 9 11 12 10 2 13 18 24 17 13 23 37 34 34 36 36 38 40 42 47 47 44 37 31 21 13 6 3 1 7 14 17 19 19 24 28 26 30 35 40 45 51 55 55 56 61 62 62
10 11 9 13 9 7 8 13 13 12 32 40 34 36 35 36 38 40 43 49 49 53 54 50 45 39 33 23 11 3 6 6 10 15 12 17 21 23 22 26 31 38 45 50 54 55 58 62 64
11 13 12 8 5 7 6 10 12 6 12 22 29 34 35 36 37 40 44 48 52 52 48 48 48 47 45 37 30 24 16 11 8 9 10 19 27 29 31 29 30 34 42 46 47 50 55 62 67
15 8 7 1 4 2 6 1 12 12 8 9 21 32 32 33 35 39 40 41 42 41 42 42 40 40 42 42 40 36 30 25 18 12 13 16 19 24 27 30 38 41 40 43 48 49 52 59 65
8 7 10 8 6 3 11 12 11 8 9 14 25 32 31 30 30 33 34 35 38 38 39 40 39 38 36 35 34 34 33 32 29 26 25 24 22 19 19 21 25 27 34 43 48 46 50 56 61
9 11 5 7 3 11 10 6 12 15 5 29 34 36 30 27 27 28 31 33 32 32 34 35 35 33 32 32 28 27 26 25 27 31 33 32 32 31 30 28 25 28 30 33 38 43 50 51 58
10 14 10 13 7 8 9 10 5 7 26 46 43 37 30 24 21 21 20 21 21 21 20 19 16 14 14 15 19 20 18 23 24 24 25 28 30 33 34 35 34 29 30 33 36 40 45 48 56
8 8 5 10 4 5 8 3 5 7 10 27 35 31 28 25 16 9 7 11 13 12 12 13 13 16 17 19 21 22 23 24 29 32 33 32 31 32 32 34 35 35 36 33 35 36 39 45 52
8 10 5 4 4 9 10 10 10 15 17 14 20 29 26 23 16 8 8 10 11 12 9 5 6 8 12 16 17 19 23 26 29 34 37 38 38 39 45 45 46 47 43 41 42 42 39 42 43
4 5 4 6 10 11 3 11 6 19 25 26 34 39 37 31 21 19 17 13 15 10 3 4 4 8 10 12 14 18 23 26 29 34 38 40 43 45 46 51 53 55 56 53 54 51 51 54 53
5 12 12 8 10 5 5 21 4 15 33 38 38 35 38 32 27 26 25 18 14 12 9 4 4 9 14 19 23 26 29 32 35 39 43 46 50 52 56 57 60 62 63 66 65 66 63 63 64
Wind_Direction_850mb
319 303 321 49 58 64 330 285 115 34 5 216 301 45 169 236 151 212 256 227 175 172 181 189 195 200 205 206 198 194 197 201 205 202 199 197 190 192 198 211 227 234 227 230 237 140 130 138 145
330 322 36 69 83 74 286 278 132 214 179 118 30 43 34 70 149 234 159 295 226 180 191 191 199 205 209 211 212 213 217 219 219 212 204 203 203 205 221 243 257 235 223 220 199 199 180 176 155
346 14 39 88 109 157 177 234 218 320 127 101 64 324 345 205 213 300 308 298 279 205 196 202 204 208 211 216 222 226 222 222 219 217 218 216 215 223 238 246 252 258 246 232 229 226 217 212 218
240 31 56 79 193 240 173 217 231 131 79 65 71 13 311 260 295 4 3 329 271 234 217 206 209 213 214 217 221 225 227 227 224 226 218 231 238 243 242 245 246 259 240 239 241 245 247 244 233
31 49 51 45 284 280 246 167 86 48 299 240 8 274 315 218 227 147 54 2 314 239 228 214 213 218 221 221 223 226 227 227 226 223 236 238 241 242 246 252 267 270 266 253 250 254 251 246 241
65 63 60 98 286 307 302 106 95 57 54 352 346 327 306 237 212 240 281 339 321 266 241 228 222 223 227 229 228 228 229 231 231 230 231 242 248 249 250 255 275 267 265 259 253 253 255 252 237
94 77 184 221 258 289 238 95 107 169 44 95 341 279 287 256 274 275 275 304 303 273 256 242 234 229 230 232 233 233 233 233 234 233 236 242 249 252 254 254 269 261 257 254 251 249 245 226 218
84 95 19 282 316 338 344 341 346 347 8 133 316 232 311 339 302 295 297 301 300 289 273 255 245 237 235 233 233 234 235 235 236 237 237 239 245 251 254 255 267 269 261 256 248 244 231 224 225
83 61 216 232 39 294 352 12 342 328 300 299 264 281 301 299 337 293 289 303 299 291 292 270 251 247 243 240 239 239 235 234 232 237 238 238 243 251 254 256 262 272 262 257 247 238 228 228 231
100 114 225 195 166 286 297 297 304 312 316 300 301 309 314 301 320 313 297 296 293 290 296 293 269 256 251 247 242 243 233 232 234 230 233 238 243 251 255 256 261 267 263 259 248 239 231 233 237
163 191 229 233 233 319 273 299 301 329 304 296 307 316 316 309 305 301 293 292 294 293 282 280 282 265 258 254 249 245 240 237 234 235 231 233 235 247 253 253 257 262 264 259 251 243 238 237 240
166 248 245 271 282 309 285 299 299 251 276 317 318 325 319 314 307 310 305 300 282 279 285 278 273 270 261 258 257 250 244 242 243 243 241 236 236 240 245 252 257 261 264 260 254 247 243 244 246
190 260 264 267 286 286 280 267 262 278 293 312 324 12 25 2 326 308 310 311 296 277 272 274 256 269 274 263 261 258 250 245 246 245 243 243 239 240 245 253 255 258 261 260 255 247 244 244 245
306 289 286 288 279 277 261 290 164 278 307 305 305 341 347 343 323 298 279 286 296 283 262 258 253 259 272 271 268 266 264 257 250 246 245 248 242 244 246 250 258 258 261 263 262 256 249 248 246
312 325 319 281 274 232 211 311 228 289 295 292 307 337 327 317 304 310 303 291 290 293 292 269 249 239 250 269 268 267 270 270 262 257 252 250 254 251 252 254 258 266 269 270 264 258 251 246 245
332 31 339 281 164 215 149 264 272 306 303 297 344 350 125 67 9 349 330 306 292 282 275 272 252 235 231 245 263 263 267 273 271 264 265 263 259 255 253 254 254 259 265 271 267 261 256 251 248
347 226 211 308 239 149 142 251 276 299 289 315 2 129 104 88 70 42 20 345 314 294 279 269 265 242 231 225 239 247 253 263 268 265 259 258 259 258 260 257 257 258 262 265 270 264 258 254 253
215 214 234 226 271 116 244 253 269 283 298 40 132 117 101 87 67 60 52 43 32 25 22 220 192 204 222 212 223 240 250 257 259 263 266 264 264 265 263 262 262 260 261 267 268 264 260 258 259
185 206 241 282 267 213 267 284 283 277 296 84 125 113 99 86 83 76 72 70 69 71 75 78 117 127 174 193 205 221 240 248 246 254 256 265 269 268 271 272 269 268 268 265 274 270 264 260 257
256 256 259 268 253 220 286 286 278 346 29 133 123 107 98 93 86 79 74 70 66 63 61 59 56 54 52 49 62 135 228 230 223 232 249 263 266 271 277 279 278 279 276 274 272 271 270 266 260
216 199 225 238 332 283 333 293 300 59 82 96 100 107 99 90 83 78 74 70 67 62 56 54 52 51 50 46 30 339 255 237 230 237 239 257 262 266 267 275 283 282 279 277 276 274 273 274 268
274 201 211 209 106 239 22 285 303 144 97 73 95 97 97 94 86 78 73 70 65 63 60 56 51 50 49 46 44 43 40 26 10 347 287 266 267 270 267 262 255 269 274 276 279 277 273 273 272
224 153 168 163 187 74 276 338 259 112 132 126 115 112 106 100 95 87 76 68 62 57 52 50 46 45 41 37 40 39 36 32 14 339 314 307 297 290 284 272 264 266 272 278 278 275 271 270 272
132 80 54 54 94 299 220 165 278 196 198 147 141 132 122 111 98 85 76 69 60 52 42 37 32 32 30 24 25 24 22 22 18 24 21 13 354 335 318 304 294 290 282 278 272 275 272 268 268
91 76 310 334 1 228 176 132 246 323 296 156 141 136 130 121 106 92 76 61 48 43 38 32 24 20 17 10 9 12 16 12 8 5 7 5 7 7 6 354 334 315 304 297 292 286 273 272 271
174 160 165 226 215 248 280 240 275 21 81 127 140 139 139 134 115 96 74 43 42 43 37 28 23 28 25 23 23 23 19 20 21 18 15 8 4 3 1 357 352 346 337 326 311 297 290 281 270
184 178 191 108 47 48 234 53 130 85 88 128 143 153 159 159 147 108 41 15 14 13 14 18 31 35 34 33 27 13 11 12 6 2 1 2 359 352 346 345 342 342 341 336 329 323 311 296 288
148 159 77 2 188 244 276 259 207 192 184 178 177 178 179 178 182 218 276 309 333 348 357 19 39 45 35 24 16 5 3 1 354 348 345 345 342 338 334 334 335 333 333 331 325 322 319 311 307
142 203 155 149 156 183 234 258 214 176 181 185 197 201 196 195 208 229 241 269 295 289 215 143 86 52 32 17 2 350 348 345 338 333 332 331 332 329 327 327 325 322 321 322 321 318 314 310 307
211 189 165 156 240 245 177 257 15 170 179 183 197 219 214 213 220 231 239 247 242 218 202 168 64 23 8 0 355 349 344 339 333 328 325 324 321 321 321 318 315 314 314 314 313 311 309 307 304